FENGYUN 1C DEB, 38797

Orbit data source: Space-Track

FENGYUN 1C DEB, 38797 is space debris in SSO originally from a launch on Mon, 10 May 1999 UTC launched from the Taiyaun Space Center, China (TSC). Fengyun 1C debris stems from the Chinese weather satellite Fengyun-1C, which was intentionally destroyed by a Chinese anti-satellite missile in 2007. This event dramatically increased the amount of space debris, with thousands of trackable fragments posing hazards to satellites and human spaceflight. The Fengyun 1C debris cloud has become a focal point in discussions about space sustainability and the need for international regulations to prevent the creation of new debris.

Loading next visibility...
Identifier
38797, 1999-025EUM
Orbit
SSO
Country
Flag of CNCN / PRC
Related business
Manufacturer
Unknown
Mission
Spacecraft
Bus & Motor
Unknown
Mass
Unknown
Launch date (UTC)
1999-05-10 (27 years ago)
Launch vehicle
Unknown
Launch site
Taiyaun Space Center, China (TSC)
Object type
Payload
Rocket body
Debris
Shape & HBR
Unknown shape, 0.1 m
Radar Cross Section
Small (<0.1 m²)

Expand to show TLE details & history
Last TLE update: 2 days ago

TLE from 2 days ago
0 FENGYUN 1C DEB
1 38797U 99025EUM 25353.45854831  .00000114  00000-0  16885-3 0  9992
2 38797  99.4844 246.1260 0244911 204.1010 154.8513 13.61613226593740
Epoch: 2025-12-19T11:00Z
TLE epoch observation values (Epoch: 2025-12-19T11:00:18.573Z)
Latitude
-0.00001°
Longitude
-7.2508°
Altitude
1,197.683 km
Speed
7.174 km/s
True Right ascension
16h 24m 30s
True Declination
0° 00' 00"
Sunlit
Object was in daylight at epoch
Visualization orbit readout
Latitude
Unknown
Longitude
Unknown
Altitude
Unknown
Speed
Unknown
Apparent Right ascension
Unknown
Apparent Declination
Unknown
Sunlit
N/A
Visualization observer readout
Local Sidereal Time
09:35:22
Azimuth
Unknown
Elevation
Unknown
Doppler factor
Unknown
Orbital elements
Apogee altitude
1,208.47 km
Perigee altitude
845.745 km
Semi-major axis
7,405.244 km
Eccentricity
0.02449
Inclination
99.4844°
RAAN
246.126°
Arg. of periapsis
204.101°
True anomaly
156.01169°
Mean anomaly
154.8513°
Eccentric anomaly
155.43467°
Mean motion
3.40592 °/min
Orbital period
105.7 mins
BSTAR
0.00016885
Loading maneuver chart data...
Computing Atmospheric mass density...

Documentation

Showing up to 5 results
|